Regional Weather Roundup
Issued by NWS Northern Indiana

Current Version | Previous Version | Text Only | Print | Product List | Glossary On
Versions: 1 2 3 4 5 6 7 8 9 10 11 12 13 14 15 16 17 18 19 20 21 22 23 24 25 26 27 28 29 30 31 32 33 34 35 36 37 38 39 40 41 42 43 44 45 46 47 48 49 50
000
ASUS43 KIWX 211210
RWRIWX

KIWX WEATHER ROUNDUP
NATIONAL WEATHER SERVICE NORTHERN INDIANA
700 AM EST SUN DEC 21 2014

NOTE: "FAIR" INDICATES FEW OR NO CLOUDS BELOW 12,000 FEET WITH NO
SIGNIFICANT WEATHER AND/OR OBSTRUCTIONS TO VISIBILITY.

* THESE STATIONS ARE NOT UNDER NWS QUALITY CONTROL. THEY ALSO MAY NOT
  REPORT WEATHER SUCH AS PRECIPITATION OR FOG.

INZ001>027-211300-
NORTHERN INDIANA

CITY           SKY/WX    TMP DP  RH WIND       PRES   REMARKS
GARY*          CLOUDY    34  25  69 SE10      30.24S WCI  26
VALPARAISO     CLOUDY    30  26  85 S6        30.25S WCI  24
6HR MIN TEMP:  30; 6HR MAX TEMP:  30;

MICHIGAN CITY* CLOUDY    32  23  69 S5        30.25S WCI  27
LAPORTE*       CLOUDY    32  29  88 S5        30.25S FOG     WCI  27
6HR MIN TEMP:  32; 6HR MAX TEMP:  32;

KNOX*          CLOUDY    31  24  74 S8        30.25S WCI  24
6HR MIN TEMP:   9; 6HR MAX TEMP:  81;

SOUTH BEND     CLOUDY    32  26  78 S7        30.26S WCI  26
6HR MIN TEMP:  31; 6HR MAX TEMP:  32;

GOSHEN         CLOUDY    31  26  82 S7        30.27S HAZE    WCI  24
6HR MIN TEMP:  30; 6HR MAX TEMP:  31;

MONTICELLO*    CLOUDY    29  26  89 SE3       30.25F
6HR MIN TEMP:  29; 6HR MAX TEMP:  31;

LOGANSPORT*    CLOUDY    30  27  86 SE6       30.28S FOG     WCI  24
ROCHESTER*     CLOUDY    32  30  93 SE6       30.27F FOG     WCI  26
WARSAW*        CLOUDY    30  28  93 CALM      30.27S FOG
ANGOLA*        CLOUDY    28  27  93 S3        30.27S
FORT WAYNE     CLOUDY    29  26  89 S3        30.30R
6HR MIN TEMP:  29; 6HR MAX TEMP:  30;

HUNTINGTON*    CLOUDY    29  26  89 S3        30.29R
6HR MIN TEMP:  29; 6HR MAX TEMP:  29;

PERU/GRISSOM   CLOUDY    30  30 100 SE7       30.27S WCI  23
6HR MIN TEMP:  30; 6HR MAX TEMP:  30;

MARION*        CLOUDY    28  25  91 SE3       30.29S FOG
6HR MIN TEMP:  22; 6HR MAX TEMP:  50;


$$
INZ028>050-211300-
CENTRAL INDIANA

CITY           SKY/WX    TMP DP  RH WIND       PRES   REMARKS
LAFAYETTE      MOCLDY    26  23  88 CALM      30.27R
6HR MIN TEMP:  26; 6HR MAX TEMP:  30;

KOKOMO*        CLOUDY    28  27  93 SE6       30.28S WCI  22
6HR MIN TEMP:  28; 6HR MAX TEMP:  30;

MUNCIE*        PTCLDY    24  21  88 S3        30.29S FOG
6HR MIN TEMP:  21; 6HR MAX TEMP:  25;

INDIANAPOLIS   PTCLDY    21  18  88 CALM      30.28R FOG
6HR MIN TEMP:  20; 6HR MAX TEMP:  25;


$$
MIZ043>046-050>051-056>058-064>065-071>073-077>080-211300-
SOUTHWEST LOWER MICHIGAN

CITY           SKY/WX    TMP DP  RH WIND       PRES   REMARKS
BATTLE CREEK   CLOUDY    30  27  88 S6        30.27R FOG     WCI  24
6HR MIN TEMP:  30; 6HR MAX TEMP:  31;

BENTON HARBOR  CLOUDY    31  26  82 S7        30.25S WCI  24
6HR MIN TEMP:  30; 6HR MAX TEMP:  31;

COLDWATER*     CLOUDY    30  28  94 MISG      30.27S FOG
6HR MIN TEMP:  29; 6HR MAX TEMP:  30;

HILLSDALE*     CLOUDY    29  28  96 CALM      30.27R FOG
HOLLAND        CLOUDY    32  26  78 S8        30.25S WCI  25
6HR MIN TEMP:  32; 6HR MAX TEMP:  33;

GRAND RAPIDS   CLOUDY    30  26  85 S9        30.25S FOG     WCI  22
6HR MIN TEMP:  30; 6HR MAX TEMP:  31;

KALAMAZOO      CLOUDY    30  27  88 S3        30.27R FOG
6HR MIN TEMP:  30; 6HR MAX TEMP:  30;

STURGIS*       CLOUDY    28  27  93 SE3       30.26S FOG
THREE RIVERS*  CLOUDY    30  28  90 S5        30.27S FOG     WCI  25
6HR MIN TEMP:  29; 6HR MAX TEMP:  30;


$$
OHZ001>008-015>018-024>025-211300-
NORTHWEST OHIO

CITY           SKY/WX    TMP DP  RH WIND       PRES   REMARKS
WAUSEON*       CLOUDY    27  25  93 CALM      30.30R FOG
DEFIANCE       CLOUDY    28  25  88 CALM      30.31R FOG
6HR MIN TEMP:  21; 6HR MAX TEMP:  28;

FINDLAY        MOCLDY    21  18  88 CALM      30.30R FOG
6HR MIN TEMP:  20; 6HR MAX TEMP:  26;

TOLEDO EXPRESS MOCLDY    19  16  88 CALM      30.31R FOG
6HR MIN TEMP:  18; 6HR MAX TEMP:  24;

TOLEDO METCALF CLEAR     22  19  89 CALM      30.32S FOG
6HR MIN TEMP:  21; 6HR MAX TEMP:  30;

LIMA           PTCLDY    24  20  84 CALM      30.30R FOG
6HR MIN TEMP:  23; 6HR MAX TEMP:  32;


$$
AND FOR LAKE MICHIGAN COASTAL AND OPEN LAKE BUOY OBSERVATIONS

STATION/POSITION TEMP    WIND        PRES    VSBY  WAVE
                 AIR SEA DIR/SP/G                  HT/PER
                 (F)     (DEG/KT/KT) (MB)    (MI)  (FT/S)
CALUMET HARBOR    32     170/  9/ 12 1022.1S
SAINT JOSEPH      32     140/  3/  8 1025.1S

$$
&&


USA.gov is the U.S. government's official web portal to all federal, state and local government web resources and services.